Regional Weather Roundup
Issued by NWS Charleston, SC

Current Version | Previous Version | Graphics & Text | Print | Product List | Glossary On
Versions: 1 2 3 4 5 6 7 8 9 10 11 12 13 14 15 16 17 18 19 20 21 22 23 24 25 26 27 28 29 30 31 32 33 34 35 36 37 38 39 40 41 42 43 44 45 46 47 48 49 50
000
ASUS42 KCHS 302112
RWRCHS

REGIONAL WEATHER ROUNDUP
NATIONAL WEATHER SERVICE CHARLESTON SC
500 PM EDT THU MAR 30 2017

NOTE: "FAIR" INDICATES FEW OR NO CLOUDS BELOW 12,000 FEET WITH NO
SIGNIFICANT WEATHER AND/OR OBSTRUCTIONS TO VISIBILITY.

NOT ALL STATIONS ARE QUALITY CONTROLLED. USE DATA WITH CAUTION...
ESPECIALLY DEWPOINT OBSERVATIONS.

SCZ027-030-031-034>040-042>050-302200-
...SOUTHEAST SOUTH CAROLINA...

CITY           SKY/WX    TMP DP  RH WIND       PRES   REMARKS
N CHARLESTON   CLOUDY    69  63  81 SE14      29.98F
WATERFRONT PRK   N/A     65  64  97 SE13      29.98F
JOHNS ISLAND   MOCLDY    68  63  83 E10G18    29.98F
PINOPOLIS        N/A     70  64  83 SE6       29.90F
MONCKS CORNER  CLOUDY    70  61  73 SE8G16    29.98F
SUMMERVILLE    CLOUDY    72  63  73 E7        29.98F
BEAUFORT MCAS  CLOUDY    71  66  84 E14       29.95F
BEAUFORT ARPT  MOCLDY    70  64  83 E12       29.95F
HILTON HEAD IS NOT AVBL
WALTERBORO     DRIZZLE   70  64  83 E8        29.96F
ALLENDALE      CLOUDY    73  66  78 SE7       29.91F

...SOUTHERN MIDLANDS AND PEE DEE...

CITY           SKY/WX    TMP DP  RH WIND       PRES   REMARKS
GEORGETOWN     CLOUDY    64  63  94 SE8       30.02F
KINGSTREE      MOCLDY    70  57  64 E12       30.00S
ORANGEBURG     RAIN      67  65  93 SE6       29.96F FOG
BARNWELL       MOCLDY    73  66  78 SE7       29.92F
AIKEN          MOCLDY    73  61  64 S9        29.95S
MANNING        CLOUDY    70  61  73 S8        29.99S
COLUMBIA       CLOUDY    69  65  86 SE10      29.93F
SUMTER         LGT RAIN  69  62  78 SE10      29.94F
FLORENCE       PTSUNNY   73  58  59 SE15G26   29.99R
MYRTLE BEACH   CLOUDY    64  59  82 E9        30.03F
N MYRTLE BEACH LGT RAIN  66  59  78 E10       30.02F

$$

GAZ063-065-086>088-099>101-113>116-118-119-134>141-150-302200-
...SOUTHEAST GEORGIA...

CITY           SKY/WX    TMP DP  RH WIND       PRES   REMARKS
SAVANNAH ARPT  PTSUNNY   78  57  48 SE13      29.91F
HUNTER AAF     MOSUNNY   79  64  60 E15       29.89F
FORT STEWART   LGT RAIN  75  64  67 SE7       29.88F
STATESBORO     SUNNY     80  66  61 S12       29.90F
SYLVANIA       PTCLDY   N/A N/A N/A SE6       29.91F
CLAXTON        MOCLDY    80  80 100 NE10      29.89F HX  91

...CSRA...CENTRAL AND FAR SOUTHEAST GEORGIA...

CITY           SKY/WX    TMP DP  RH WIND       PRES   REMARKS
THOMSON        PTSUNNY   81  60  49 S7        29.92F
AUGUSTA-BUSH   CLOUDY    79  63  57 SE10      29.86F
AUGUSTA-DANIEL CLOUDY    80  60  50 SE12      29.89F
SWAINSBORO     FAIR      81  61  50 SE9       29.89F
VIDALIA        PTSUNNY   82  59  44 S5        29.87F
EASTMAN        MOCLDY    86  31  14 W7        29.89F
HAZLEHURST     FAIR      87  56  34 SW10      29.86F
ALMA           MOSUNNY   87  53  31 S10       29.86F
WAYCROSS       MOSUNNY   91  56  31 SW7       29.85F
JESUP          FAIR      82  63  51 SE10G18   29.88F
BAXLEY         PTSUNNY   88  61  40 SW5       29.86F
BRUNSWICK      CLOUDY    79  64  61 SE12      29.90F
SAINT SIMONS   CLOUDY    74  64  71 SE10      29.89F

$$

SCZ027-028-034-036>038-045-046-048>050-GAZ119-141-302200-
...LAKE AND SUPPLEMENTAL COASTAL OBSERVATIONS...

STATION/POSITION TIME  TEMP    WIND        PRES    WAVE   SWELL
                       AIR SEA DIR/SP/G            HT/PER HT/PER/DIR
                 (UTC) (F)     (DEG/KT/KT) (MB)    (FT/S) (FT/S/D)
WINYAH BAY       1945   64      80/  7     1017.0
LAKE MURRAY      2020   67      90/ 13/ 17 1013.5
ACE BASIN NERRS  1945   69     100/  4     1015.0
FORT PULASKI     2048   76 67  160/ 10/ 14 1013.8F
SAPELO ISLAND    2000   79     120/  8     1013.0

$$

ANZ835-935-AMZ111-154-330-350-352-354-370-450-454-472-302200-
...C-MAN AND BUOY OBSERVATIONS...

STATION/POSITION TIME  TEMP    WIND        PRES    WAVE   SWELL
                       AIR SEA DIR/SP/G            HT/PER HT/PER/DIR
                 (UTC) (F)     (DEG/KT/KT) (MB)    (FT/S) (FT/S/D)
BUOY 41004       1950   68 72  140/ 12/ 14 1016.0    5/10   3/110/10
BUOY 41008       1950   69 67  110/ 10/ 12 1013.9    3/ 9   3/100/ 9
FOLLY BEACH CMAN 2000   65     110/ 18/ 20 1016.1F
CAPERS NEARSHORE NOT AVBL
FRIPP NEARSHORE  2008   67 65  100/  8/ 12 1014.6F


STATION/POSITION TIME  TEMP    WIND        PRES    WAVE   SWELL
                       AIR SEA DIR/SP/G            HT/PER HT/PER/DIR
                 (UTC) (F)     (DEG/KT/KT) (MB)    (FT/S) (FT/S/D)
5E ST. MARYS GA  2030      69                N/A     3/10   2/110/11
FRYING PAN BUOY  2050   70 75  120/ 17/ 21 1016.8F   5/ 9   3/120/ 9
BUOY 41025       2050   66 77  140/ 12/ 16 1018.4F   5/ 9   5/ 60/ 9
CAPE LOOKOUT NC  2000   62      40/ 14/ 16 1018.4F
BUOY 41002       2050   67 72   90/ 14/ 16 1018.6F   6/ 9   5/ 70/ 9
BUOY 41010       NOT AVBL
ST AUGUSTINE FL  2100   72 70  150/ 15/ 16 1013.2F


$$



USA.gov is the U.S. government's official web portal to all federal, state and local government web resources and services.